Weather History for Rifle, CO

Change the Weather History Date:

Sunday, February 10, 2013

  Actual Average Record
Temperature  
Mean Temperature 25 °F 29 °F  
Max Temperature 34 °F 41 °F 60 °F (1926)
Min Temperature 16 °F 18 °F -34 °F (1933)
Degree Days  
Heating Degree Days 40 36  
Month to date heating degree days 369 371  
Since 1 July heating degree days 4367 4406  
Cooling Degree Days 0 0  
Month to date cooling degree days 0 0  
Year to date cooling degree days 0 0  
Moisture  
Dew Point 15 °F    
Average Humidity 58    
Maximum Humidity 75    
Minimum Humidity 41    
Precipitation  
Precipitation T in 0.02 in 0.40 in (1932)
Month to date precipitation 0.01 0.23  
Year to date precipitation 0.71 1.04  
Sea Level Pressure  
Sea Level Pressure 29.90 in    
Wind  
Wind Speed 4 mph (SW)    
Max Wind Speed 18 mph    
Max Gust Speed 22 mph    
Visibility 9 miles    
Events Snow    
T = Trace of Precipitation, MM = Missing Value Source: NWS Daily Summary

Daily Weather History Graph

Daily Weather History Graph

Search for Another Location

Airport:

Trip Planner

Search our weather history database for the weather conditions in past years. The results will help you decide how hot, cold, wet, or windy it might be!

Date:

Astronomy

Feb. 10, 2013 Rise Set
Actual Time 7:08 AM MST 5:42 PM MST
Civil Twilight 6:40 AM MST 6:09 PM MST
Nautical Twilight 6:09 AM MST 6:41 PM MST
Astronomical Twilight 5:37 AM MST 7:12 PM MST
Moon 7:00 AM MST (2/10) 6:35 PM MST (2/10)
Length of Visible Light 11h 29m
Length of Day
10h 33m
New Moon, 0% of the Moon is Illuminated
Feb 10
New Moon
Feb 17
First Quarter
Feb 25
Full
Mar 4
Last Quarter
Mar 11
New

Hourly Weather History & Observations

Time (MST) Temp. Windchill Dew Point Humidity Pressure Visibility Wind Dir Wind Speed Gust Speed Precip Events Conditions
12:53 AM 21.0 °F 13.4 °F 12.0 °F 68% 29.83 in 10.0 mi SSW 5.8 mph - N/A   Clear
1:53 AM 19.9 °F 14.9 °F 12.0 °F 71% 29.82 in 10.0 mi SE 3.5 mph - N/A   Overcast
2:53 AM 19.9 °F 12.1 °F 10.9 °F 68% 29.83 in 10.0 mi Variable 5.8 mph - N/A   Overcast
3:53 AM 18.0 °F 11.1 °F 10.9 °F 74% 29.84 in 10.0 mi SE 4.6 mph - N/A   Scattered Clouds
4:53 AM 17.1 °F 7.6 °F 9.0 °F 71% 29.86 in 10.0 mi SSW 6.9 mph - N/A   Clear
5:53 AM 18.0 °F - 10.9 °F 74% 29.88 in 10.0 mi Calm Calm - N/A   Overcast
6:53 AM 19.0 °F 11.1 °F 12.0 °F 74% 29.89 in 10.0 mi West 5.8 mph - N/A   Overcast
7:53 AM 19.9 °F 12.1 °F 12.9 °F 74% 29.91 in 10.0 mi WNW 5.8 mph - N/A   Overcast
8:53 AM 21.9 °F 17.2 °F 14.0 °F 72% 29.93 in 10.0 mi SE 3.5 mph - N/A   Overcast
9:53 AM 25.0 °F - 16.0 °F 69% 29.91 in 10.0 mi Calm Calm - N/A   Scattered Clouds
10:53 AM 27.0 °F - 16.0 °F 63% 29.93 in 10.0 mi Calm Calm - N/A   Clear
11:53 AM 30.0 °F - 16.0 °F 56% 29.91 in 10.0 mi Calm Calm - N/A   Partly Cloudy
12:53 PM 30.9 °F - 14.0 °F 50% 29.89 in 10.0 mi Calm Calm - N/A   Mostly Cloudy
1:53 PM 33.1 °F - 12.0 °F 42% 29.87 in 10.0 mi Calm Calm - N/A   Clear
2:53 PM 34.0 °F 28.0 °F 12.9 °F 42% 29.86 in 10.0 mi West 6.9 mph - N/A   Scattered Clouds
3:53 PM 33.1 °F 28.7 °F 15.1 °F 48% 29.88 in 10.0 mi WSW 4.6 mph - N/A   Clear
4:53 PM 32.0 °F 25.6 °F 14.0 °F 48% 29.90 in 10.0 mi SW 6.9 mph - N/A   Clear
5:53 PM 30.0 °F 24.1 °F 17.1 °F 59% 29.93 in 10.0 mi West 5.8 mph 16.1 mph N/A   Overcast
6:53 PM 28.9 °F 19.2 °F 19.9 °F 69% 29.95 in 10.0 mi West 11.5 mph - N/A   Clear
7:53 PM 26.1 °F 20.5 °F 19.0 °F 75% 29.97 in 10.0 mi Variable 4.6 mph - N/A   Partly Cloudy
9:53 PM 27.0 °F - 18.0 °F 69% 29.97 in 10.0 mi Calm Calm - N/A   Overcast
10:53 PM 26.1 °F 21.9 °F 19.0 °F 75% 29.97 in 10.0 mi WNW 3.5 mph - N/A   Overcast
11:27 PM 26.6 °F - 19.4 °F 74% 29.90 in 2.5 mi Calm Calm - 0.00 in Snow Light Snow
11:43 PM 26.6 °F - 21.2 °F 80% 29.90 in 4.0 mi Calm Calm - 0.00 in Snow Light Snow
11:53 PM 26.1 °F - 21.0 °F 81% 29.97 in 5.0 mi Calm Calm - 0.00 in Snow Light Snow